Overview Statistics Trail Chart Weather Telemetry Raw packets
 

This is the latest recevied weather packets stored in our database for station/object KG7DQI-13. If no packets are shown the sender has not sent any weather packets the latest 10 day(s).

<< 1 2 3 4 5 6 >>
Time Temp. Humidity Pressure Rain* Wind** Luminosity Snow
1788523284 5° C 86% 910.4 hPa 0 mm - 0 W/m² -
1788522336 5° C 86% 910.5 hPa 0 mm - 0 W/m² -
1788520518 5° C 86% 910 hPa 0 mm - 0 W/m² -
1788517888 5.56° C 86% 910 hPa 0 mm - 0 W/m² -
1788517006 5° C 84% 909.7 hPa 0 mm - 0 W/m² -
1788516103 5° C 84% 909.6 hPa 0 mm - 0 W/m² -
1788515181 5° C 84% 909.6 hPa 0 mm - 0 W/m² -
1788513413 6.11° C 81% 909.8 hPa 0 mm - 0 W/m² -
1788512515 6.67° C 79% 909.8 hPa 0 mm - 0 W/m² -
1788511590 7.22° C 78% 909.8 hPa 0 mm - 0 W/m² -
1788510703 7.78° C 78% 909.8 hPa 0 mm - 0 W/m² -
1788509807 8.33° C 78% 909.6 hPa 0 mm - 0 W/m² -
1788508927 8.33° C 78% 909.5 hPa 0 mm - 0 W/m² -
1788508016 8.33° C 76% 909.5 hPa 0 mm - 0 W/m² -
1788505339 9.44° C 72% 909.2 hPa 0 mm - 0 W/m² -
1788504436 10° C 71% 909.1 hPa 0 mm - 0 W/m² -
1788503557 10° C 70% 909.1 hPa 0 mm - 0 W/m² -
1788501775 10.56° C 68% 909.1 hPa 0 mm - 0 W/m² -
1788499959 11.11° C 67% 909.2 hPa 0 mm - 0 W/m² -
1788499087 11.11° C 65% 909.1 hPa 0 mm - 0 W/m² -
1788498139 11.11° C 66% 909.1 hPa 0 mm - 0 W/m² -
1788497202 11.11° C 66% 909.1 hPa 0 mm - 0 W/m² -
1788495342 11.11° C 66% 909.1 hPa 0 mm - 0 W/m² -
1788494418 11.67° C 66% 909.2 hPa 0 mm - 0 W/m² -
1788492600 12.22° C 63% 908.9 hPa 0 mm - 0 W/m² -

* Rain latest hour (hover to see other rain measurements)
** Current wind speed in m/s (hover to see current wind gust speed)